W7TJC Weather Reports


time (UTC)temp
F
wind
direction
speed
knots
gust
knots
rain 1hr
in
rain 24hr
in
rain mn
in
humidity
%
barometer
mb
20260506033617 59 110 0.0 0.0 0.00 0.00 0.00 82 1016.4
20260506033114 59 95 0.0 0.0 0.00 0.00 0.00 81 1016.5
20260506032611 59 113 0.0 0.0 0.00 0.00 0.00 81 1016.4
20260506032108 60 110 0.0 0.0 0.00 0.00 0.00 81 1016.5
20260506031605 60 92 0.0 0.0 0.00 0.00 0.00 81 1016.5
20260506031102 60 103 0.0 0.0 0.00 0.00 0.00 81 1016.2
20260506030601 60 96 0.0 0.0 0.00 0.00 0.00 81 1016.1
20260506030057 60 90 0.0 0.0 0.00 0.00 0.00 80 1016.3
20260506025554 60 89 0.0 0.0 0.00 0.00 0.00 80 1016.3
20260506025050 60 102 0.0 0.0 0.00 0.00 0.00 80 1016.4
20260506024547 60 92 0.0 0.0 0.00 0.00 0.00 80 1016.1
20260506024044 61 77 0.0 0.0 0.00 0.00 0.00 80 1016.5
20260506023540 61 96 0.0 0.0 0.00 0.00 0.00 80 1016.2
20260506023038 61 91 0.0 0.0 0.00 0.00 0.00 79 1016.3
20260506022535 61 84 0.0 0.0 0.00 0.00 0.00 79 1016.3
20260506022032 61 92 0.0 0.0 0.00 0.00 0.00 79 1016.4
20260506021529 61 88 0.0 0.0 0.00 0.00 0.00 79 1016.4
20260506021027 62 100 0.0 0.0 0.00 0.00 0.00 78 1016.2
20260506020524 62 90 0.0 0.0 0.00 0.00 0.00 78 1016.2
20260506020022 62 67 0.0 0.9 0.00 0.00 0.00 77 1016.3
20260506015519 62 90 0.0 0.0 0.00 0.00 0.00 77 1016.3
20260506015016 62 110 0.0 0.0 0.00 0.00 0.00 76 1016.3
20260506014513 62 99 0.0 0.0 0.00 0.00 0.00 77 1016.5
20260506014009 62 87 0.9 0.9 0.00 0.00 0.00 77 1016.2
20260506013507 62 79 0.0 0.0 0.00 0.00 0.00 77 1016.5
20260506013003 62 78 0.0 0.0 0.00 0.00 0.00 77 1016.1
20260506012459 62 94 0.0 0.0 0.00 0.00 0.00 77 1016.2
20260506011957 62 101 0.0 0.0 0.00 0.00 0.00 76 1016.2
20260506011454 62 80 0.0 0.0 0.00 0.00 0.00 76 1016.4
20260506010950 62 91 0.9 0.9 0.00 0.00 0.00 76 1016.3
20260506010450 63 80 0.0 0.0 0.00 0.00 0.00 76 1016.2
20260506005945 63 85 0.0 0.9 0.00 0.00 0.00 76 1016.1
20260506005443 63 106 0.0 0.0 0.00 0.00 0.00 75 1016.2
20260506004938 63 102 0.0 0.0 0.00 0.00 0.00 76 1016.1
20260506004437 63 102 0.0 0.0 0.00 0.00 0.00 75 1016.3
20260506003932 63 123 0.0 0.0 0.00 0.00 0.00 76 1016.2
20260506003429 62 141 0.0 0.0 0.00 0.00 0.00 77 1016.4
20260506002925 62 87 0.0 0.0 0.00 0.00 0.00 77 1016.3
20260506002421 62 84 0.0 0.9 0.00 0.00 0.00 77 1016.4
20260506001917 62 82 0.0 0.9 0.00 0.00 0.00 76 1016.5
20260506001414 62 86 0.9 0.9 0.00 0.00 0.00 75 1016.3
20260506000911 62 124 0.0 0.0 0.00 0.00 0.00 77 1016.3
20260506000409 62 99 0.0 0.0 0.00 0.00 0.00 76 1016.4
20260505235905 62 89 0.0 0.0 0.00 0.00 0.00 76 1016.7
20260505235404 62 59 1.7 1.7 0.00 0.00 0.00 76 1016.5
20260505234900 62 95 0.0 0.9 0.00 0.00 0.00 75 1016.5
20260505234358 63 160 0.0 0.9 0.00 0.00 0.00 76 1016.6
20260505233854 63 86 0.0 0.0 0.00 0.00 0.00 76 1016.8
20260505233352 62 121 0.0 0.0 0.00 0.00 0.00 76 1016.7
20260505232849 62 56 0.0 0.0 0.00 0.00 0.00 76 1016.6
20260505232348 62 92 0.0 0.0 0.00 0.00 0.00 76 1016.9
20260505231844 62 165 0.9 1.7 0.00 0.00 0.00 76 1016.9
20260505231341 62 71 0.0 0.9 0.00 0.00 0.00 76 1017.0
20260505230839 61 118 0.9 0.9 0.00 0.00 0.00 77 1016.9
20260505230336 62 113 0.0 0.0 0.00 0.00 0.00 77 1017.1
20260505225833 61 161 0.9 0.9 0.00 0.00 0.00 77 1017.2
20260505225330 62 110 0.0 0.0 0.00 0.00 0.00 77 1017.2
20260505224825 61 169 0.0 0.0 0.00 0.00 0.00 78 1017.2
20260505224323 61 185 0.0 0.0 0.00 0.00 0.00 77 1017.2
20260505223820 61 223 1.7 1.7 0.00 0.00 0.00 78 1017.2
20260505223317 60 201 0.9 0.9 0.00 0.00 0.00 78 1017.2
20260505222813 60 216 1.7 1.7 0.00 0.00 0.00 78 1017.3
20260505222309 61 219 1.7 1.7 0.00 0.00 0.00 78 1017.3
20260505221806 61 189 0.0 0.9 0.00 0.00 0.00 77 1017.5
20260505221303 61 111 0.9 0.9 0.00 0.00 0.00 78 1017.5
20260505220800 61 104 0.9 0.9 0.00 0.00 0.00 77 1017.4
20260505220257 61 137 0.0 0.0 0.00 0.00 0.00 77 1017.5
20260505215755 61 122 0.0 0.0 0.00 0.00 0.00 78 1017.6
20260505215253 61 155 0.0 0.0 0.00 0.00 0.00 78 1017.5
20260505214750 60 157 0.0 0.9 0.00 0.00 0.00 78 1017.6
20260505214248 60 207 1.7 1.7 0.00 0.00 0.00 78 1017.5
20260505213745 60 141 0.0 0.0 0.00 0.00 0.00 78 1017.7
20260505213242 60 121 0.9 0.9 0.00 0.00 0.00 79 1017.6
20260505212737 60 92 0.0 0.0 0.00 0.00 0.00 78 1017.6
20260505212235 59 78 1.7 1.7 0.00 0.00 0.00 78 1017.5
20260505211732 60 139 0.9 0.9 0.00 0.00 0.00 79 1017.7
20260505211230 60 107 0.0 0.0 0.00 0.00 0.00 79 1017.5
20260505210726 59 199 0.9 0.9 0.00 0.00 0.00 79 1017.6
20260505210222 59 125 0.9 0.9 0.00 0.00 0.00 79 1017.7
20260505205720 59 155 0.0 0.0 0.00 0.00 0.00 79 1017.8
20260505205218 59 104 0.0 0.0 0.00 0.00 0.00 79 1017.7
20260505204714 59 113 0.0 0.0 0.00 0.00 0.00 79 1017.7
20260505204213 59 121 0.0 0.0 0.00 0.00 0.00 78 1017.8
20260505203709 59 109 0.0 0.0 0.00 0.00 0.00 79 1017.9
20260505203206 59 210 0.9 1.7 0.00 0.00 0.00 80 1017.8
20260505202702 59 121 0.0 0.0 0.00 0.00 0.00 80 1017.7
20260505202158 58 134 0.0 0.9 0.00 0.00 0.00 80 1017.8
20260505201654 58 112 0.0 0.9 0.00 0.00 0.00 80 1018.0
20260505201153 58 154 0.0 0.0 0.00 0.00 0.00 80 1017.9
20260505200650 58 222 1.7 1.7 0.00 0.00 0.00 81 1017.8
20260505200147 58 206 2.6 2.6 0.00 0.00 0.00 80 1017.6
20260505195643 58 138 0.0 0.0 0.00 0.00 0.00 81 1017.8
20260505195140 58 135 0.0 0.0 0.00 0.00 0.00 81 1017.6
20260505194638 58 190 0.0 0.0 0.00 0.00 0.00 81 1017.6
20260505194134 57 158 0.0 0.0 0.00 0.00 0.00 81 1017.9
20260505193630 57 102 0.0 0.0 0.00 0.00 0.00 81 1017.8
20260505193127 57 204 0.9 1.7 0.00 0.00 0.00 81 1017.9
20260505192626 57 198 0.0 0.9 0.00 0.00 0.00 81 1017.7
20260505192123 57 165 0.0 0.9 0.00 0.00 0.00 81 1017.8
20260505191621 57 199 0.9 1.7 0.00 0.00 0.00 81 1017.7
20260505191119 58 166 0.0 0.0 0.00 0.00 0.00 81 1017.5
20260505190615 57 225 0.9 0.9 0.00 0.00 0.00 81 1017.4
20260505190110 58 106 0.0 0.0 0.00 0.00 0.00 81 1017.8
20260505185607 57 117 0.0 0.0 0.00 0.00 0.00 81 1017.7
20260505185103 57 118 0.9 0.9 0.00 0.00 0.00 81 1017.6
20260505184600 57 76 0.0 0.9 0.00 0.00 0.00 81 1017.8
20260505184057 57 86 0.0 0.0 0.00 0.00 0.00 81 1017.7
20260505183553 57 194 0.9 1.7 0.00 0.00 0.00 80 1017.3
20260505183051 57 102 0.0 0.0 0.00 0.00 0.00 81 1017.5
20260505182547 57 195 0.0 0.0 0.00 0.00 0.00 81 1017.7
20260505182044 57 81 0.0 0.0 0.00 0.00 0.00 81 1017.6
20260505181541 57 123 0.0 0.0 0.00 0.00 0.00 82 1017.7
20260505181038 57 224 1.7 1.7 0.00 0.00 0.00 82 1017.5
20260505180533 57 117 0.0 0.0 0.00 0.00 0.00 82 1017.5
20260505180032 57 111 0.0 0.0 0.00 0.00 0.00 81 1017.5
20260505175532 56 122 0.0 0.0 0.00 0.00 0.00 83 1017.7
20260505175029 56 164 0.0 0.9 0.00 0.00 0.00 82 1017.7
20260505174526 56 104 0.0 0.9 0.00 0.00 0.00 83 1017.3
20260505174022 56 108 0.0 0.0 0.00 0.00 0.00 83 1017.7
20260505173519 56 191 0.9 0.9 0.00 0.00 0.00 83 1017.6
20260505173016 56 150 0.0 0.0 0.00 0.00 0.00 82 1017.5
20260505172514 56 146 0.9 0.9 0.00 0.00 0.00 82 1017.5
20260505172009 56 220 1.7 1.7 0.00 0.00 0.00 83 1017.4
20260505171505 56 172 0.0 0.0 0.00 0.00 0.00 82 1017.3
20260505171002 56 108 0.0 0.0 0.00 0.00 0.00 83 1017.5
20260505170458 55 186 0.9 0.9 0.00 0.00 0.00 83 1017.4
20260505165954 55 156 0.0 0.0 0.00 0.00 0.00 83 1017.4
20260505165450 55 139 0.0 0.0 0.00 0.00 0.00 83 1017.2
20260505164946 55 140 0.0 0.0 0.00 0.00 0.00 83 1017.1
20260505164442 55 166 0.0 0.0 0.00 0.00 0.00 83 1017.2
20260505163940 55 180 0.0 0.0 0.00 0.00 0.00 83 1017.3
20260505163439 55 149 0.9 0.9 0.00 0.00 0.00 83 1017.1
20260505162938 55 205 0.9 1.7 0.00 0.00 0.00 83 1017.4
20260505162433 55 160 0.9 0.9 0.00 0.00 0.00 83 1017.3
20260505161930 55 210 1.7 1.7 0.00 0.00 0.00 82 1017.2
20260505161426 55 215 0.0 0.0 0.00 0.00 0.00 83 1017.1
20260505160924 55 201 0.9 0.9 0.00 0.00 0.00 83 1017.1
20260505160422 55 107 0.0 0.0 0.00 0.00 0.00 83 1017.1
20260505152852 54 203 1.7 1.7 0.00 0.00 0.00 83 1016.9
20260505152350 54 97 0.0 0.0 0.00 0.00 0.00 84 1016.8
20260505151849 54 144 0.0 0.0 0.00 0.00 0.00 85 1016.9
20260505151346 54 78 0.0 0.0 0.00 0.00 0.00 84 1016.9
20260505150844 54 131 0.0 0.0 0.00 0.00 0.00 85 1016.7
20260505150341 54 314 0.0 0.9 0.00 0.00 0.00 85 1016.7
20260505140311 54 110 0.0 0.9 0.00 0.00 0.00 87 1016.3
20260505130234 53 116 0.0 0.0 0.00 0.00 0.00 88 1015.3
20260505124724 53 112 0.0 0.0 0.00 0.00 0.00 88 1015.3
20260505124221 53 181 0.9 0.9 0.00 0.00 0.00 88 1015.4
20260505123717 53 145 0.0 0.0 0.00 0.00 0.00 88 1015.4
20260505123214 53 119 0.0 0.0 0.00 0.00 0.00 88 1015.5
20260505122711 53 117 0.0 0.0 0.00 0.00 0.00 88 1015.2
20260505122208 53 173 0.0 0.0 0.00 0.00 0.00 87 1015.2
20260505121704 53 122 0.0 0.0 0.00 0.00 0.00 88 1015.1
20260505121201 53 144 0.0 0.0 0.00 0.00 0.00 88 1015.1
20260505120657 53 127 0.0 0.0 0.00 0.00 0.00 88 1015.2
20260505120153 53 106 0.0 0.0 0.00 0.00 0.00 88 1015.3
20260505115647 53 205 0.9 1.7 0.00 0.00 0.00 88 1015.1
20260505115145 53 186 0.0 0.9 0.00 0.00 0.00 88 1015.2
20260505114642 53 172 0.0 0.0 0.00 0.00 0.00 88 1015.0
20260505114138 53 128 0.0 0.0 0.00 0.00 0.00 88 1014.9
20260505113635 53 131 0.0 0.0 0.00 0.00 0.00 88 1015.2
20260505113131 53 125 0.9 0.9 0.00 0.00 0.00 88 1015.0
20260505112627 53 198 1.7 1.7 0.00 0.00 0.00 88 1015.1
20260505112126 53 93 0.0 0.9 0.00 0.00 0.00 88 1014.9
20260505111625 53 129 0.0 0.0 0.00 0.00 0.00 88 1014.9
20260505111121 53 135 0.0 0.0 0.00 0.00 0.00 88 1014.8
20260505110618 53 142 0.0 0.9 0.00 0.00 0.00 88 1014.9
20260505110115 53 79 0.9 1.7 0.00 0.00 0.00 88 1014.9
20260505102051 54 211 0.9 1.7 0.00 0.00 0.00 88 1014.6
20260505101549 54 237 0.9 0.9 0.00 0.00 0.00 88 1014.5
20260505101045 54 148 0.0 0.0 0.00 0.00 0.00 88 1014.5
20260505100542 54 194 0.0 0.0 0.00 0.00 0.00 88 1014.5
20260505100039 54 153 0.0 0.0 0.00 0.00 0.00 88 1014.5
20260505095535 54 112 0.0 0.0 0.00 0.00 0.00 88 1014.6
20260505095031 54 119 0.0 0.0 0.00 0.00 0.00 88 1014.4
20260505094528 54 111 0.0 0.0 0.00 0.00 0.00 88 1014.6
20260505094024 54 157 0.0 0.0 0.00 0.00 0.00 88 1014.6
20260505093521 54 155 0.0 0.0 0.00 0.00 0.00 88 1014.3
20260505093018 54 123 0.0 0.0 0.00 0.00 0.00 88 1014.3
20260505092516 54 123 0.0 0.0 0.00 0.00 0.00 88 1014.1
20260505092014 54 204 1.7 1.7 0.00 0.00 0.00 88 1014.3
20260505091511 54 152 0.0 0.0 0.00 0.00 0.00 88 1014.3
20260505091009 54 134 0.0 0.0 0.00 0.00 0.00 88 1014.2
20260505090506 54 186 0.0 0.0 0.00 0.00 0.00 88 1014.2
20260505090004 54 144 0.0 0.0 0.00 0.00 0.00 88 1014.2
20260505085501 54 188 0.0 0.0 0.00 0.00 0.00 88 1014.2
20260505084959 54 109 0.0 0.0 0.00 0.00 0.00 89 1014.4
20260505084457 54 136 0.0 0.0 0.00 0.00 0.00 89 1014.1
20260505083955 54 145 0.0 0.0 0.00 0.00 0.00 89 1013.9
20260505083452 54 118 0.9 0.9 0.00 0.00 0.00 89 1014.2
20260505082948 54 118 0.0 0.0 0.00 0.00 0.00 89 1014.0
20260505082444 54 209 1.7 2.6 0.00 0.00 0.00 89 1013.8
20260505081942 54 163 0.9 0.9 0.00 0.00 0.00 89 1014.0
20260505081438 54 97 0.0 0.0 0.00 0.00 0.00 89 1014.2
20260505080934 54 139 0.9 0.9 0.00 0.00 0.00 89 1014.0
20260505080431 54 122 0.9 0.9 0.00 0.00 0.00 89 1013.9
20260505075926 54 207 1.7 1.7 0.00 0.00 0.00 89 1013.9
20260505075423 54 165 0.9 1.7 0.00 0.00 0.00 88 1014.1
20260505074921 54 179 0.0 0.0 0.00 0.00 0.00 89 1014.1
20260505074418 54 98 0.0 0.0 0.00 0.00 0.00 89 1013.9
20260505073915 54 30 0.0 0.0 0.00 0.00 0.00 89 1013.8
20260505073413 54 128 0.0 0.9 0.00 0.00 0.00 89 1013.8
20260505072910 54 124 0.0 0.0 0.00 0.00 0.00 89 1013.8
20260505072406 53 142 0.0 0.0 0.00 0.00 0.00 89 1013.8
20260505071902 53 121 0.0 0.0 0.00 0.00 0.00 89 1013.7
20260505071358 53 127 0.0 0.0 0.00 0.00 0.00 89 1013.6
20260505070857 53 114 0.0 0.0 0.00 0.00 0.00 89 1013.5
20260505070353 53 125 0.0 0.0 0.00 0.00 0.00 89 1013.4
20260505065848 53 137 0.0 0.0 0.00 0.00 0.00 89 1013.4
20260505065345 53 140 0.0 0.0 0.00 0.00 0.00 88 1013.7
20260505064842 54 134 0.0 0.0 0.00 0.00 0.00 88 1013.3
20260505064339 54 141 0.0 0.0 0.00 0.00 0.00 88 1013.3
20260505063837 54 125 0.0 0.0 0.00 0.00 0.00 88 1013.1
20260505063333 54 140 0.0 0.0 0.00 0.00 0.00 88 1013.1
20260505062830 54 119 0.0 0.0 0.00 0.00 0.00 87 1013.2
20260505062327 54 118 0.0 0.0 0.00 0.00 0.00 88 1013.1
20260505061824 54 171 0.0 0.0 0.00 0.00 0.00 87 1013.2
20260505061322 54 191 0.9 0.9 0.00 0.00 0.00 87 1012.8
20260505060819 54 165 0.0 0.0 0.00 0.00 0.00 87 1012.7
20260505060316 54 126 0.0 0.0 0.00 0.00 0.00 87 1013.0
20260505055812 54 102 0.0 0.0 0.00 0.00 0.00 87 1012.8
20260505055308 55 125 0.0 0.0 0.00 0.00 0.00 86 1013.0
20260505054806 55 126 0.0 0.0 0.00 0.00 0.00 86 1012.7
20260505054303 55 146 0.0 0.0 0.00 0.00 0.00 86 1012.8
20260505053801 55 98 0.0 0.0 0.00 0.00 0.00 86 1012.6
20260505053257 55 118 0.0 0.0 0.00 0.00 0.00 86 1012.7
20260505052754 55 123 0.0 0.9 0.00 0.00 0.00 85 1012.5
20260505052251 55 120 0.0 0.0 0.00 0.00 0.00 85 1012.8
20260505051748 55 196 0.0 0.9 0.00 0.00 0.00 85 1012.7
20260505051246 55 154 0.9 0.9 0.00 0.00 0.00 85 1012.6
20260505050744 56 150 0.0 0.9 0.00 0.00 0.00 84 1012.6
20260505050242 56 165 0.9 0.9 0.00 0.00 0.00 84 1012.5
20260505041712 57 192 0.0 0.9 0.00 0.00 0.00 81 1012.1
20260505041209 58 146 0.0 0.9 0.00 0.00 0.00 81 1012.1
20260505040706 58 146 0.9 0.9 0.00 0.00 0.00 80 1012.1
20260505040204 58 148 0.0 0.0 0.00 0.00 0.00 80 1011.9
20260505035700 59 201 1.7 1.7 0.00 0.00 0.00 80 1011.8
20260505035156 59 197 1.7 1.7 0.00 0.00 0.00 79 1011.7
20260505034653 59 148 1.7 1.7 0.00 0.00 0.00 79 1011.7
20260505034150 60 191 0.9 0.9 0.00 0.00 0.00 78 1011.8